Regional Weather Roundup
Issued by NWS

Home | Current Version | Previous Version | Text Only | Print | Product List | Glossary Off
Versions: 1 2 3 4 5 6 7 8 9 10 11 12 13 14 15 16 17 18 19 20 21 22 23 24 25 26 27 28 29 30 31 32 33 34 35 36 37 38 39 40 41 42 43 44 45 46 47 48 49 50

000
ASUS43 KMKX 240321
RWRWI

WISCONSIN REGIONAL WEATHER ROUNDUP
NATIONAL WEATHER SERVICE MILWAUKEE/SULLIVAN WI
1000 PM CDT TUE SEP 23 2014

NOTE: "FAIR" INDICATES FEW OR NO CLOUDS BELOW 12,000 FEET WITH NO
SIGNIFICANT WEATHER AND/OR OBSTRUCTIONS TO VISIBILITY.

WIZ001-002-006>008-014>016-023>028-240400-
NORTHWEST WISCONSIN

CITY           SKY/WX    TMP DP  RH WIND       PRES   REMARKS
SUPERIOR ARPT  FOG       47  47 100 CALM      30.17S VSB 1/4
ASHLAND        PTCLDY    53  50  89 S5        30.21R
HAYWARD        CLEAR     55  52  89 CALM      30.21S
SIREN          PTCLDY    60  53  78 SE5       30.19R
CUMBERLAND     PTCLDY    57  52  82 SE5       30.21R
RICE LAKE      PTCLDY    59  52  77 SE5       30.22R
CHETEK         PTCLDY    58  53  82 E3        30.21S
LADYSMITH      CLEAR     55  51  85 SE5       30.25R
EAU CLAIRE     MOCLDY    61  51  70 S6        30.21R
MENOMONIE      MOCLDY    59  53  80 SE5       30.21R
NEW RICHMOND   MOCLDY    58  51  77 SE5       30.19S
OSCEOLA        PTCLDY    61  52  73 SE5       30.20S
$$

WIZ003>005-009-010-017-018-240400-
NORTH CENTRAL WISCONSIN

CITY           SKY/WX    TMP DP  RH WIND       PRES   REMARKS
MANITOWISH WTR PTCLDY    50  50 100 CALM      30.24S
ARBOR VITAE    PTCLDY    54  51  87 CALM      30.25S
WOODRUFF       PTCLDY    54  51  87 CALM      30.25S
RHINELANDER    CLEAR     50  49  96 CALM      30.27R
EAGLE RIVER    CLEAR     48  48 100 CALM      30.26R
LAND O LAKES     N/A     46  46  99 CALM      30.27R FOG
PHILLIPS       PTCLDY    56  51  82 S6        30.24R
TOMAHAWK       PTCLDY    49  48  95 CALM      30.26R
MEDFORD        PTCLDY    54  50  84 SE3       30.26R
MERRILL        PTCLDY    49  48  99 CALM      30.26R
$$

WIZ029-030-035-036-043>047-240400-
CENTRAL WISCONSIN

CITY           SKY/WX    TMP DP  RH WIND       PRES   REMARKS
WAUSAU         PTCLDY    56  52  86 E3        30.25R
MOSINEE        CLEAR     54  54 100 SE3       30.27R
MARSHFIELD     PTCLDY    56  51  84 CALM      30.25R
STEVENS POINT  PTCLDY    51  49  92 CALM      30.27S
WAUPACA        PTCLDY    55  54  94 CALM      30.27S
WAUTOMA        PTCLDY    51  49  93 CALM      30.27S
WISC RAPIDS    CLEAR     53  51  93 SE3       30.27R
CAMP DOUGLAS   FOG       48  48 100 E2        30.25S VSB 1/2
$$

WIZ011>013-019>022-031-037>040-048>050-240400-
NORTHEAST WISCONSIN

CITY           SKY/WX    TMP DP  RH WIND       PRES   REMARKS
ANTIGO         CLEAR     52  49  90 S5        30.28R
SHAWANO        CLEAR     62  53  72 CALM      30.27R
OCONTO         CLEAR     58  56  92 S3        30.28R
STURGEON BAY   CLEAR     55  52  88 S9        30.30R
GREEN BAY      CLEAR     55  52  89 SE3       30.28S
MANITOWOC      CLEAR     57  55  93 S6        30.31R
APPLETON       CLEAR     57  54  88 CALM      30.28R
CLINTONVILLE   CLEAR     55  52  88 CALM      30.27R
OSHKOSH        CLEAR     57  51  80 S5        30.28R
$$

WIZ032>034-041-042-053>061-240400-
SOUTHWEST WISCONSIN

CITY           SKY/WX    TMP DP  RH WIND       PRES   REMARKS
LA CROSSE      CLOUDY    61  50  67 E6        30.22R
SPARTA         MOCLDY    54  52  92 CALM      30.25R
VIROQUA        CLOUDY    60  49  66 SE6       30.25R
BOSCOBEL       CLOUDY    55  52  89 CALM      30.25R
PRAIRIE DU CHI MOCLDY    59  49  70 E6        30.23R
PLATTEVILLE    MOCLDY    60  49  69 SE7       30.26S
$$

WIZ056-057-062-063-064-067-068-240400-
SOUTH CENTRAL WISCONSIN

CITY           SKY/WX    TMP DP  RH WIND       PRES   REMARKS
REEDSBURG      CLEAR     55  52  91 CALM      30.26R
BARABOO/DELLS  CLEAR     56  49  78 CALM      30.27R
LONE ROCK      MOCLDY    54  48  80 CALM      30.26R
MINERAL POINT  CLOUDY    59  46  63 SE5       30.26S
MADISON        CLEAR     54  51  90 CALM      30.27R
MIDDLETON      CLEAR     52  52  97 CALM      30.28R
WATERTOWN      PTCLDY    56  51  81 CALM      30.28S
MONROE         PTCLDY    59  48  67 SE7       30.27S
JANESVILLE     CLEAR     55  46  71 SE3       30.28R
$$

WIZ051-052-058>065-066-070>072-240400-
SOUTHEAST WISCONSIN

CITY           SKY/WX    TMP DP  RH WIND       PRES   REMARKS
MILWAUKEE      CLEAR     56  47  71 CALM      30.30R
WAUKESHA       CLEAR     55  46  71 S6        30.31S
MILWAUKEE/TIMM CLEAR     57  45  62 CALM      30.31R
RACINE         CLEAR     58  51  78 S3        30.32R
BURLINGTON     PTCLDY    48  47  95 CALM      30.30S
KENOSHA        CLEAR     52  49  89 CALM      30.30S
FOND DU LAC    PTCLDY    56  51  84 SE5       30.28S
SHEBOYGAN      CLEAR     53  48  83 CALM      30.30R
WEST BEND      CLEAR     52  46  82 CALM      30.30R
JUNEAU         PTCLDY    56  52  87 E8        30.29S
$$

LSZ147-162-240400-
LAKE SUPERIOR

STATION/POSITION TIME  TEMP    WIND        PRES    WAVE
                       AIR SEA DIR/SP/G            HT/PER
                 (UTC) (F)     (DEG/KT/KT) (MB)    (FT/S)
W MID LAKE BUOY  0250   55 49  140/  6/  6 1022.5R   0
DEVILS ISLAND    0300   65     170/  8/  9 1022.3R
PORT WING        0240   57     160/  2/  3 1022.0R
SAXON HARBOR     0200   57     200/  5/  6 1022.4R
$$

LMZ867-665-643>646-240400-
LAKE MICHIGAN

STATION/POSITION TIME  TEMP    WIND        PRES    WAVE
                       AIR SEA DIR/SP/G            HT/PER
                 (UTC) (F)     (DEG/KT/KT) (MB)    (FT/S)
CHAMBERS ISLAND  0200   60     150/  5/  9 1025.1S
N MID LAKE BUOY  0250   59 58  200/ 10/ 12 1025.9R   1/ 3
NORTHPORT PIER   0300   58     180/  5/ 10 1025.4R
SISTER BAY       0212          150/  9/ 12   N/A
ALGOMA LAKESHORE 0110          220/  7/  8   N/A
KEWAUNEE LAKESHO 0300   56     180/  6/  7 1024.9R
SHEBOYGAN LAKESH 0300   56 53  160/  6/  7 1026.5R
PORT WASHINGTON  0200   58     200/  3/  7 1026.4R
ATWATER BUOY     0300   59     150/  6/  8 1026.8R
S MID LAKE BUOY  0250   62 62  130/  6/  6 1026.7R   0
KENOSHA   LAKESH 0300   60     180/  6/  7 1025.7R
$$

TC  - TEMPERATURE IN CELSIUS
VSB - VISIBILITY IN STATUTE MILES
WCI - WIND CHILL INDEX
HX  - HEAT INDEX




USA.gov is the U.S. government's official web portal to all federal, state and local government web resources and services.